Regional Weather Roundup
Issued by NWS

Home | Current Version | Previous Version | Graphics & Text | Print | Product List | Glossary On
Versions: 1 2 3 4 5 6 7 8 9 10 11 12 13 14 15 16 17 18 19 20 21 22 23 24 25 26 27 28 29 30 31 32 33 34 35 36 37 38 39 40 41 42 43 44 45 46 47 48 49 50
000
ASUS45 KBOU 030107
RWRCO

WEATHER ROUNDUP FOR COLORADO
NATIONAL WEATHER SERVICE DENVER/BOULDER CO
700 PM MDT WED SEP 02 2015

NOTE: "FAIR" INDICATES FEW OR NO CLOUDS BELOW 12000 FEET WITH NO
SIGNIFICANT WEATHER AND/OR OBSTRUCTIONS TO VISIBILITY.

COZ001>005-013-030-031-030200-
...NORTHWEST COLORADO...

CITY           SKY/WX    TMP DP  RH WIND       PRES   REMARKS
CRAIG          PTCLDY    71  55  56 N5        30.10F
HAYDEN         NOT AVBL
MEEKER         PTCLDY    76  44  32 S9        30.11S
MOUNT WERNER   NOT AVBL
STEAMBOAT SPGS PTCLDY    72  40  31 CALM      30.17R
WALDEN         MOCLDY    68  37  32 SW7       30.25S
$$

COZ006>008-011-030200-
...WEST CENTRAL VALLEYS...

CITY           SKY/WX    TMP DP  RH WIND       PRES   REMARKS
GRAND JUNCTION PTCLDY    83  47  28 SW3       30.00F
MONTROSE       MOCLDY    78  48  34 SE18      30.11S
EAGLE          NOT AVBL
RIFLE          PTCLDY    78  53  41 CALM      30.06F
DELTA          MOCLDY    85  46  25 SE3       30.04S
NUCLA          MOCLDY    81  37  21 SW13      30.13S
$$

COZ017>023-064>068-030200-
...SOUTHWEST COLORADO...

CITY           SKY/WX    TMP DP  RH WIND       PRES   REMARKS
DURANGO        MOCLDY    75  46  35 SW7       30.19S
CORTEZ         CLEAR     74  51  44 S9        30.12F
PAGOSA SPRINGS MOCLDY    71  36  28 W7        30.26S
TELLURIDE      CLOUDY    63  46  54 CALM      30.40S
WOLF CREEK PAS NOT AVBL
$$

COZ009-010-012-014-032>034-037-058>063-030200-
...CENTRAL COLORADO...

CITY           SKY/WX    TMP DP  RH WIND       PRES   REMARKS
ASPEN          MOCLDY    69  45  41 SE5       30.24R
BUENA VISTA    CLOUDY    70  37  29 SW14G24   30.26R
COPPER MTN     MOCLDY    59  34  38 W15       30.58R
BERTHOUD PASS  FAIR      46  36  66 N12G17    30.62S
COTTONWOOD PAS CLOUDY    63  36  36 SW29G36   30.41S
GUNNISON       CLOUDY    61  48  63 NW5       30.31S
KREMMLING      PTCLDY    73  36  25 SE3       30.21S
LEADVILLE      MOCLDY    49  46  90 E9G18     30.41F
MONARCH PASS   CLOUDY    45  37  76 MISG      30.71R
SALIDA         CLOUDY    72  39  30 W14G24    30.33R
SUNLIGHT       MOCLDY    55  46  71 CALM      30.50S
WILKERSON PASS MOCLDY    57  30  35 SW6       30.54S
$$

COZ069>075-030200-
...SAN LUIS VALLEY/SANGRE DE CRISTO MOUNTAINS...

CITY           SKY/WX    TMP DP  RH WIND       PRES   REMARKS
ALAMOSA        MOCLDY    63  49  60 NE13      30.26R
LA VETA PASS   CLOUDY    57  43  58 MISG      30.45R
SAGUACHE       CLOUDY    64  45  48 E3        30.31S
$$

COZ035-036-038>040-030200-
...NORTHERN COLORADO FRONT RANGE...

CITY           SKY/WX    TMP DP  RH WIND       PRES   REMARKS
DENVER INTL AP PTCLDY    82  36  19 E7        30.01S
DMNS CITY PARK   N/A     80  43  26 S1G8      30.00S
AURORA         MOCLDY    84  37  18 SE2       30.03S
FRONT RANGE AP MOCLDY    82  34  17 SE6       30.03
ERIE MUNI ARPT MOCLDY    83  38  20 SE3       29.99R
BOULDER MUN AP MOCLDY    82  43  24 CALM      30.00R
CENTENNIAL     MOCLDY    82  38  20 S3        30.05S
BROOMFIELD     MOCLDY    84  39  20 CALM      30.04R
FORT COLLINS   PTCLDY    84  43  23 SE3       29.97R
LONGMONT       PTCLDY    85  47  26 W3        30.00R
$$

COZ041-046-047-076>085-087-088-030200-
...PIKES PEAK/PALMER DIVIDE AND SOUTHERN FOOTHILLS...

CITY           SKY/WX    TMP DP  RH WIND       PRES   REMARKS
COLO. SPRINGS  MOCLDY    79  42  26 SE8       30.10R
A. F. ACADEMY  MOCLDY    78  40  26 S3        30.12R
ELLICOTT       MOCLDY   N/A N/A N/A MISG      30.08S
FALCON         MOCLDY    73  44  34 MISG      30.16S
FORT CARSON    MOCLDY    79  43  27 SE5       30.06R
LIMON          PTCLDY    78  45  30 SE3       30.03S
MONUMENT HILL  MOCLDY    72  43  35 SE3       30.17R
TRINIDAD       CLOUDY    77  46  33 SE3       30.06S
$$

COZ042>045-048>051-090-091-030200-
...NORTHEAST COLORADO...

CITY           SKY/WX    TMP DP  RH WIND       PRES   REMARKS
GREELEY ARPT   PTCLDY    82  45  26 CALM      29.96S
AKRON          CLEAR     87  39  18 SW3       29.96S
BURLINGTON     PTCLDY    84  44  24 NW5       29.93S
WRAY           CLOUDY    89  45  21 SE5       29.89R
STERLING       CLEAR     90  45  20 CALM      29.89S
HOLYOKE        PTCLDY    84  59  42 CALM      29.89S
FORT MORGAN    CLEAR     83  40  22 SE7       29.95S
$$

COZ086-089-092>099-030200-
...SOUTHEAST COLORADO...

CITY           SKY/WX    TMP DP  RH WIND       PRES   REMARKS
PUEBLO         MOCLDY    88  41  19 SE8       29.95S
LA JUNTA       CLOUDY    87  43  21 E7        29.92S
LAMAR          MOCLDY    91  49  23 CALM      29.87S
SPRINGFIELD      N/A     85  52  32 S15       29.94F
$$



USA.gov is the U.S. government's official web portal to all federal, state and local government web resources and services.